Regional Weather Roundup
Issued by NWS

Home | Current Version | Previous Version | Text Only | Print | Product List | Glossary On
Versions: 1 2 3 4 5 6 7 8 9 10 11 12 13 14 15 16 17 18 19 20 21 22 23 24 25 26 27 28 29 30 31 32 33 34 35 36 37 38 39 40 41 42 43 44 45 46 47 48 49 50
000
ASUS44 KFWD 291115
RWRTX
NORTH TEXAS HOURLY WEATHER ROUNDUP
NATIONAL WEATHER SERVICE FORT WORTH TX
600 AM CDT FRI APR 29 2016

NOTE: "FAIR" INDICATES FEW OR NO CLOUDS BELOW 12,000 FEET WITH NO
SIGNIFICANT WEATHER AND/OR OBSTRUCTIONS TO VISIBILITY.

TXZ118-119-291200-
DALLAS/FORT WORTH METROPLEX

CITY           SKY/WX    TMP DP  RH WIND       PRES   REMARKS
DFW AIRPORT    MOCLDY    75  69  81 S10       29.68F
DALLAS LOVE    CLOUDY    74  70  87 S12       29.69F
FTW MEACHAM    CLOUDY    75  70  84 S8        29.68F
DAL-EXECUTIVE  CLOUDY    73  70  90 S7        29.68F
FTW-ALLIANCE   MOCLDY    72  68  87 S6        29.68F
FTW-NAS-JRB    CLOUDY    76  70  82 S13       29.68F
FTW-SPINKS     CLOUDY    74  70  87 S7        29.70F
ARLINGTON      CLOUDY    77  70  79 SE9       29.69F
GRAND PRAIRIE  PTCLDY    74  70  87 S7        29.71S
ADDISON        MOCLDY    73  72  94 MISG      29.70F
MESQUITE       CLOUDY    72  71  96 S8        29.69F
LANCASTER      CLOUDY    73  68  85 S10       29.70S
$$

TXZ091>094-102>105-117-120-121-131>134-291200-
NORTH CENTRAL TEXAS

CITY           SKY/WX    TMP DP  RH WIND       PRES   REMARKS
SHRMAN/DENISON CLOUDY    63  60  90 NE6       29.74R
GAINESVILLE    CLOUDY    65  63  94 E5        29.73S
BOWIE          MOCLDY    65  63  91 CALM      29.70S
BRIDGEPORT     CLEAR     66  66 100 SE3       29.70S
DECATUR        MOCLDY    67  66  96 SE3       29.70F FOG
DENTON         CLOUDY    70  67  90 SE7       29.68F
MCKINNEY       MOCLDY    71  69  93 S5        29.70S
GREENVILLE     CLOUDY    72  68  88 SE5       29.71R
ROCKWALL       CLOUDY    72  71  95 S8G16     29.69S
TERRELL        PTCLDY    73  70  90 S10       29.70F
WAXAHACHIE     CLOUDY    73  73 100 S7        29.70F FOG
CLEBURNE       CLOUDY    73  73 100 S12G20    29.72S
GRANBURY       CLOUDY    76  69  80 SE9       29.70S
$$

TXZ083>090-098>101-113>116-127>130-139>142-154-155-291200-
WESTERN NORTH TEXAS

CITY           SKY/WX    TMP DP  RH WIND       PRES   REMARKS
WICHITA FALLS  CLOUDY    65  60  84 NE6       29.69F
WF-KICKAPOO    CLOUDY    67  61  81 E6        29.70F
VERNON         CLOUDY    66  55  66 E14       29.70F
ABILENE        PTCLDY    70  67  90 S16G24    29.67S FOG
ABILENE-DYESS  CLOUDY    72  66  83 SE17G25   29.64F
BRECKENRIDGE   CLOUDY    72  69  90 S8        29.68R FOG
GRAHAM         PTCLDY    69  67  93 SE3       29.67S
MINERAL WELLS  CLOUDY    73  68  84 S8        29.67S
STEPHENVILLE   CLOUDY    72  68  87 S7        29.73R
COMANCHE       CLOUDY    72  72 100 SE7       29.70S
COLEMAN        CLOUDY    71  67  88 S9G17     29.70S FOG
$$

TXZ143>147-156>162-174-175-291200-
CENTRAL TEXAS

CITY           SKY/WX    TMP DP  RH WIND       PRES   REMARKS
WACO           CLOUDY    74  71  91 S8        29.69F
WACO-MCGREGOR  CLOUDY    73  72  96 SE9       29.70S
HILLSBORO      CLOUDY    72  70  94 S12       29.70S FOG
CORSICANA      CLOUDY    74  71  91 SE7       29.71F FOG
MEXIA          CLOUDY    73  72  98 SE6       29.71F
HEARNE         CLOUDY    76  74  92 SE9       29.71F FOG
CAMERON        CLOUDY    76  73  91 S9        29.70F
TEMPLE         MOCLDY    73  72  94 S13       29.69F
KILLEEN        CLOUDY    73  72  94 SE15      29.69S
KILLEEN-SKYLRK CLOUDY    73  72  96 S9        29.70S
FORT HOOD      CLOUDY    71  71 100 S10       29.67F
GATESVILLE     MOCLDY    73  72  94 MISG      29.72S FOG
HAMILTON       CLOUDY    73  73  99 S13G18    29.71F
LAMPASAS       MOCLDY    73  71  93 S6        29.70F
$$

TXZ095>097-106>112-122>126-135>138-148>153-164>167-291200-
EAST TEXAS

CITY           SKY/WX    TMP DP  RH WIND       PRES   REMARKS
PARIS          CLOUDY    68  57  68 SE8       29.74F
SULPHUR SPRNGS LGT RAIN  73  69  87 S5        29.74R
MOUNT PLEASANT CLOUDY    71  70  97 SE6       29.74S
GILMER         CLOUDY    72  70  92 SE6       29.74R
MINEOLA        CLOUDY    73  70  88 CALM      29.73R
TYLER          LGT RAIN  77  70  79 S16       29.71F
LONGVIEW       CLOUDY    75  70  84 S13       29.72S
MARSHALL       CLOUDY    73  69  89 S7        29.77S
ATHENS         CLOUDY    72  72 100 S6        29.71S
PALESTINE      CLOUDY    77  73  87 S8G16     29.74S
JACKSONVILLE   CLOUDY    75  71  87 S10G17    29.76S
HENDERSON      CLOUDY    75  69  80 S12G17    29.75S
CENTER         CLOUDY    76  72  86 S12G22    29.75S
NACOGDOCHES    CLOUDY    73  70  88 S12G20    29.74F
LUFKIN         MOCLDY    74  70  87 S14G22    29.75F
$$

SUPPLEMENTAL OBSERVATIONS (CENTRAL)

CITY           SKY/WX    TMP DP  RH WIND       PRES   REMARKS
LAKE TEXOMA      N/A     64  61  88 NE3         N/A
PAT MAYSE LAKE   N/A     70  68  94 SE7         N/A
LAKE LIMESTONE   N/A     75  73  94 S3          N/A
MCGREGOR         N/A     73  70  88 S13         N/A
$$

SUPPLEMENTAL OBSERVATIONS (WEST)

CITY           SKY/WX    TMP DP  RH WIND       PRES   REMARKS
MILLERS CREEK    N/A     66  63  88 E5          N/A
COMANCHE         N/A     72  70  94 SE8         N/A
HAMBY            N/A     72  66  83 S16G22      N/A
IVIE RESERVOIR   N/A     72  66  83 SE8         N/A
COLORADO BEND    N/A     72  68  88 SW10        N/A
$$

SUPPLEMENTAL OBSERVATIONS (EAST)

CITY           SKY/WX    TMP DP  RH WIND       PRES   REMARKS
CLARKSVILLE      N/A     72  66  83 SE7G15      N/A
TEXARKANA        N/A     72  68  88 S3          N/A
LINDEN           N/A     72  66  83 SE2         N/A
GILMER           N/A     73  70  88 SE6         N/A
HENDERSON        N/A     75  68  78 S12G20      N/A
LUFKIN           N/A     75  70  83 MISG        N/A
N SABINE NF      N/A     75  70  83 MISG        N/A
S SABINE NF      N/A     73  68  83 E3G15       N/A
$$

SUPPLEMENTAL OBSERVATIONS ARE A COLLECTION OF AUTOMATED INSTRUMENTS
THAT ARE MAINTAINED BY A VARIETY OF FEDERAL AND STATE AGENCIES.
CERTAIN ELEMENTS...SUCH AS HUMIDITY VALUES AND SUSTAINED WIND
SPEEDS...MAY BE APPROXIMATED.





USA.gov is the U.S. government's official web portal to all federal, state and local government web resources and services.